Regional Weather Roundup
Issued by NWS Charleston, SC

Current Version | Previous Version | Graphics & Text | Print | Product List | Glossary On
Versions: 1 2 3 4 5 6 7 8 9 10 11 12 13 14 15 16 17 18 19 20 21 22 23 24 25 26 27 28 29 30 31 32 33 34 35 36 37 38 39 40 41 42 43 44 45 46 47 48 49 50
969 ASUS42 KCHS 182212 RWRCHS REGIONAL WEATHER ROUNDUP NATIONAL WEATHER SERVICE CHARLESTON SC 500 PM EST SAT NOV 18 2017 NOTE: "FAIR" INDICATES FEW OR NO CLOUDS BELOW 12,000 FEET WITH NO SIGNIFICANT WEATHER AND/OR OBSTRUCTIONS TO VISIBILITY. NOT ALL STATIONS ARE QUALITY CONTROLLED. USE DATA WITH CAUTION... ESPECIALLY DEWPOINT OBSERVATIONS. SCZ027-030-031-034>040-042>050-182300- ...SOUTHEAST SOUTH CAROLINA... CITY SKY/WX TMP DP RH WIND PRES REMARKS N CHARLESTON PTCLDY 70 56 61 SW13 29.86S WATERFRONT PRK NOT AVBL JOHNS ISLAND FAIR 68 59 73 S8 29.87S PINOPOLIS N/A 72 55 56 S8 29.77F MONCKS CORNER FAIR 68 52 56 SW9 29.85S SUMMERVILLE FAIR 70 55 60 S5 29.85F BEAUFORT MCAS CLEAR 71 59 65 S12G18 29.86S BEAUFORT ARPT FAIR 68 59 73 S9 29.86S HILTON HEAD IS CLEAR 68 59 73 S8 29.88F WALTERBORO PTCLDY 70 54 56 S8 29.85F ALLENDALE FAIR 72 52 49 VRB5 29.84S ...SOUTHERN MIDLANDS AND PEE DEE... CITY SKY/WX TMP DP RH WIND PRES REMARKS GEORGETOWN FAIR 68 57 68 S7 29.86F KINGSTREE FAIR 70 52 52 S7 29.83S ORANGEBURG CLEAR 69 52 54 SW9 29.83F BARNWELL N/A 72 54 53 SW6 29.84S AIKEN FAIR 68 52 56 S9 29.85F MANNING FAIR 70 59 68 MISG 29.83S COLUMBIA PTCLDY 72 52 49 SW9 29.81F SUMTER PTCLDY 70 51 51 S12 29.78F FLORENCE PTCLDY 68 56 65 S6 29.81F MYRTLE BEACH PTCLDY 69 57 65 S12 29.85F N MYRTLE BEACH CLOUDY 67 59 75 S13 29.84F $$ GAZ063-065-086>088-099>101-113>116-118-119-134>141-150-182300- ...SOUTHEAST GEORGIA... CITY SKY/WX TMP DP RH WIND PRES REMARKS SAVANNAH ARPT PTCLDY 73 53 49 SW8 29.87S HUNTER AAF CLEAR 72 58 60 S5 29.84F FORT STEWART CLEAR 72 52 49 SW7 29.85S STATESBORO CLEAR 73 47 40 SW7 29.86S SYLVANIA CLEAR 73 55 53 SW6 29.86S CLAXTON FAIR 74 54 49 CALM 29.86F ...CSRA...CENTRAL AND FAR SOUTHEAST GEORGIA... CITY SKY/WX TMP DP RH WIND PRES REMARKS THOMSON CLEAR 68 51 54 W5 29.87S AUGUSTA-BUSH CLEAR 71 51 49 SW7 29.82F AUGUSTA-DANIEL CLEAR 72 51 47 SW12 29.83F SWAINSBORO FAIR 72 54 53 NW7 29.86S VIDALIA CLEAR 73 54 49 SW6 29.86F EASTMAN FAIR 74 38 28 SW8 29.88S HAZLEHURST FAIR 73 40 30 SW9 29.86F ALMA CLEAR 73 53 49 SW7 29.87F WAYCROSS CLEAR 74 50 42 SW8 29.89S JESUP FAIR 73 52 46 SW3 29.89S BAXLEY FAIR 72 52 49 SW6 29.87F BRUNSWICK CLEAR 72 57 60 SE6 29.90R SAINT SIMONS CLEAR 69 61 75 S9 29.89S $$ SCZ027-028-034-036>038-045-046-048>050-GAZ119-141-182300- ...LAKE AND SUPPLEMENTAL COASTAL OBSERVATIONS... STATION/POSITION TIME TEMP WIND PRES WAVE SWELL AIR SEA DIR/SP/G HT/PER HT/PER/DIR (UTC) (F) (DEG/KT/KT) (MB) (FT/S) (FT/S/D) WINYAH BAY NOT AVBL LAKE MURRAY 2120 69 220/ 13/ 16 1008.5F ACE BASIN NERRS 2045 73 170/ 2 1011.0 FORT PULASKI NOT AVBL SAPELO ISLAND 2100 73 170/ 11 1012.0 $$ ANZ835-935-AMZ111-154-330-350-352-354-370-450-454-472-182300- ...C-MAN AND BUOY OBSERVATIONS... STATION/POSITION TIME TEMP WIND PRES WAVE SWELL AIR SEA DIR/SP/G HT/PER HT/PER/DIR (UTC) (F) (DEG/KT/KT) (MB) (FT/S) (FT/S/D) BUOY 41004 2150 72 76 230/ 16/ 17 1011.3F 4/ 5 2/ 90/ 9 BUOY 41008 2150 69 69 160/ 12/ 16 1011.9F 2/ 7 2/ 70/ 7 FOLLY BEACH CMAN 2100 66 200/ 7/ 8 1012.4F CAPERS NEARSHORE 2108 65 63 220/ 10/ 12 1011.5F FRIPP NEARSHORE 2108 66 63 200/ 8/ 12 1011.0F STATION/POSITION TIME TEMP WIND PRES WAVE SWELL AIR SEA DIR/SP/G HT/PER HT/PER/DIR (UTC) (F) (DEG/KT/KT) (MB) (FT/S) (FT/S/D) 5E ST. MARYS GA 2200 66 N/A 3/13 2/100/13 FRYING PAN BUOY 2150 73 71 200/ 21/ 27 1010.8F 4/ 4 2/100/ 9 BUOY 41025 2150 71 67 200/ 21/ 29 1011.2F 4/ 5 2/ 80/ 7 CAPE LOOKOUT NC 2100 67 190/ 11/ 13 1011.7F BUOY 41002 2150 71 77 200/ 10/ 12 1015.1F 5/ 9 5/ 9 BUOY 41010 NOT AVBL ST AUGUSTINE FL 2200 70 70 160/ 9/ 10 1013.3F $$

USA.gov is the U.S. government's official web portal to all federal, state and local government web resources and services.